This is the latest recevied weather packets stored in our database for station/object YO6KXQ-10. If no packets are shown the sender has not sent any weather packets the latest 10 day(s).
| Time | Temp. | Humidity | Pressure | Rain* | Wind** | Luminosity | Snow |
|---|---|---|---|---|---|---|---|
| 1777585138 | 15° C | 53% | 1028.4 hPa | - | - | - | - |
| 1777584118 | 15.56° C | 53% | 1028.4 hPa | - | - | - | - |
| 1777583098 | 15.56° C | 53% | 1028.3 hPa | - | - | - | - |
| 1777581057 | 15.56° C | 53% | 1028.2 hPa | - | - | - | - |
| 1777580037 | 15.56° C | 53% | 1028.2 hPa | - | - | - | - |
| 1777579013 | 15.56° C | 53% | 1028.1 hPa | - | - | - | - |
| 1777575952 | 16.11° C | 52% | 1028.1 hPa | - | - | - | - |
| 1777574932 | 16.11° C | 52% | 1028 hPa | - | - | - | - |
| 1777573912 | 16.11° C | 52% | 1027.8 hPa | - | - | - | - |
| 1777569831 | 17.22° C | 51% | 1027.3 hPa | - | - | - | - |
| 1777568811 | 17.22° C | 50% | 1027.3 hPa | - | - | - | - |
| 1777564730 | 16.67° C | 51% | 1026.9 hPa | - | - | - | - |
| 1777556569 | 16.67° C | 50% | 1027 hPa | - | - | - | - |
| 1777555548 | 16.67° C | 50% | 1027 hPa | - | - | - | - |
| 1777550448 | 16.67° C | 51% | 1027.2 hPa | - | - | - | - |
| 1777549428 | 16.67° C | 51% | 1027.2 hPa | - | - | - | - |
| 1777546367 | 16.67° C | 50% | 1027.1 hPa | - | - | - | - |
| 1777545347 | 17.22° C | 49% | 1027.1 hPa | - | - | - | - |
| 1777544327 | 16.67° C | 49% | 1027.1 hPa | - | - | - | - |
| 1777543307 | 16.11° C | 48% | 1027.1 hPa | - | - | - | - |
| 1777542286 | 16.67° C | 53% | 1027 hPa | - | - | - | - |
| 1777541266 | 16.67° C | 53% | 1027.1 hPa | - | - | - | - |
| 1777540246 | 16.67° C | 53% | 1027 hPa | - | - | - | - |
| 1777538206 | 16.67° C | 53% | 1027 hPa | - | - | - | - |
| 1777537186 | 16.67° C | 54% | 1026.9 hPa | - | - | - | - |
* Rain since midnight (hover to see other rain measurements)
** Current wind speed in m/s (hover to see current wind gust speed)